This demonstration page uses our WeatherBlox Daily Observations layout. Learn more.

Left ArrowRight Arrow

39.51506, -84.39828

Hourly Observations for May 8, 2019

Temp ( °F °C ) Dew Point ( °F °C ) Humidity (%) Winds ( mph kmh ) Pressure ( in mb ) Visibility ( mi km ) Precip ( " mm )
12:15 am 00:15 Clear 60 15.5 51 10.7 73 73 NE 9 15 30.15 1021 10 16 0.00 0.00
12:35 am 00:35 Clear 60 15.3 51 10.7 74 74 NNE 7 11 30.16 1021 10 16 0.00 0.00
12:55 am 00:55 Clear 58 14.7 51 10.4 76 76 NE 8 13 30.16 1021 10 16 0.00 0.00
1:15 am 01:15 Clear 58 14.5 50 10.2 76 76 NE 13 20 30.16 1021 10 16 0.00 0.00
1:35 am 01:35 Clear 57 14.1 50 9.8 76 76 NE 12 19 30.15 1021 10 16 0.00 0.00
1:55 am 01:55 Clear 57 13.8 49 9.5 75 75 NE 10 17 30.15 1021 10 16 0.00 0.00
2:15 am 02:15 Clear 56 13.5 49 9.4 76 76 NNE 8 13 30.15 1021 10 16 0.00 0.00
2:35 am 02:35 Clear 55 13 49 9.2 78 78 NE 8 13 30.14 1021 10 16 0.00 0.00
2:55 am 02:55 Partly Cloudy 55 12.9 48 9.1 78 78 NE 7 11 30.14 1021 10 16 0.00 0.00
3:15 am 03:15 Clear 55 12.8 48 8.8 77 77 NE 9 15 30.15 1021 10 16 0.00 0.00
3:35 am 03:35 Clear 55 12.7 48 8.8 77 77 NNE 8 13 30.15 1021 10 16 0.00 0.00
3:55 am 03:55 Partly Cloudy 54 12.4 47 8.4 77 77 NE 8 13 30.15 1021 10 16 0.00 0.00
4:15 am 04:15 Clear 54 12.4 47 8.2 76 76 NE 9 15 30.15 1021 10 16 0.00 0.00
4:35 am 04:35 Partly Cloudy 54 12.3 47 8.1 76 76 NE 8 13 30.15 1021 10 16 0.00 0.00
4:55 am 04:55 Clear 54 12.1 47 8.3 78 78 ENE 9 15 30.15 1021 10 16 0.00 0.00
5:15 am 05:15 Clear 53 11.7 47 8.1 79 79 NE 6 9 30.14 1021 10 16 0.00 0.00
5:35 am 05:35 Clear 53 11.4 47 8.1 80 80 NE 6 9 30.16 1021 10 16 0.00 0.00
5:55 am 05:55 Clear 51 10.8 46 8 83 83 NNE 6 9 30.17 1022 10 16 0.00 0.00
6:15 am 06:15 Clear 51 10.6 46 8 84 84 NNE 6 9 30.16 1021 10 16 0.00 0.00
6:35 am 06:35 Sunny 51 10.6 46 7.8 83 83 NNE 6 9 30.17 1022 10 16 0.00 0.00
6:55 am 06:55 Sunny 51 10.6 46 7.7 82 82 NNE 6 9 30.18 1022 10 16 0.00 0.00
7:15 am 07:15 Sunny 52 10.9 46 7.8 81 81 NE 7 11 30.18 1022 10 16 0.00 0.00
7:35 am 07:35 Sunny 53 11.5 46 7.7 78 78 NE 7 11 30.17 1022 10 16 0.00 0.00
7:55 am 07:55 Sunny 54 12.1 46 7.8 75 75 ENE 8 13 30.16 1021 10 16 0.00 0.00
8:15 am 08:15 Sunny 55 12.5 46 7.7 73 73 ENE 9 15 30.16 1021 10 16 0.00 0.00
8:35 am 08:35 Sunny 56 13.2 46 8 71 71 E 10 17 30.16 1021 10 16 0.00 0.00
8:55 am 08:55 Sunny 56 13.5 47 8.2 71 71 ENE 10 17 30.15 1021 10 16 0.00 0.00
9:15 am 09:15 Sunny 58 14.5 48 8.8 69 69 ENE 7 11 30.14 1021 10 16 0.00 0.00
9:35 am 09:35 Sunny 59 14.8 48 9.1 69 69 ENE 7 11 30.15 1021 10 16 0.00 0.00
9:55 am 09:55 Sunny 60 15.5 49 9.4 67 67 ENE 6 9 30.15 1021 10 16 0.00 0.00
10:15 am 10:15 Sunny 61 16.2 50 10.1 67 67 ENE 7 11 30.12 1020 10 16 0.00 0.00
10:35 am 10:35 Sunny 63 17.1 51 10.5 65 65 ENE 8 13 30.12 1020 10 16 0.00 0.00
10:55 am 10:55 Sunny 64 17.9 52 11.2 65 65 NE 8 13 30.12 1020 10 16 0.00 0.00
11:15 am 11:15 Sunny 65 18.6 53 11.6 64 64 NE 5 7 30.12 1020 10 16 0.00 0.00
11:35 am 11:35 Sunny 67 19.3 53 11.6 61 61 NE 7 11 30.12 1020 10 16 0.00 0.00
11:55 am 11:55 Sunny 68 20 55 12.5 62 62 NE 5 7 30.11 1020 10 16 0.00 0.00
12:15 pm 12:15 Sunny 69 20.6 54 12.3 59 59 E 6 9 30.10 1019 10 16 0.00 0.00
12:35 pm 12:35 Sunny 71 21.4 56 13.4 60 60 ENE 7 11 30.08 1019 10 16 0.00 0.00
12:55 pm 12:55 Sunny 72 22.4 57 14.1 60 60 E 7 11 30.07 1018 10 16 0.00 0.00
1:15 pm 13:15 Sunny 73 22.8 57 14.1 58 58 ENE 6 9 30.06 1018 10 16 0.00 0.00
1:35 pm 13:35 Sunny 74 23.2 56 13.6 55 55 E 6 9 30.04 1017 10 16 0.00 0.00
1:55 pm 13:55 Sunny 76 24.3 58 14.6 55 55 E 7 11 30.02 1017 10 16 0.00 0.00
2:15 pm 14:15 Sunny 77 24.8 58 14.4 52 52 ESE 9 15 30.01 1016 10 16 0.00 0.00
2:35 pm 14:35 Sunny 77 25 59 14.8 53 53 SE 8 13 30.00 1016 10 16 0.00 0.00
2:55 pm 14:55 Sunny 78 25.7 60 15.3 53 53 SE 8 13 29.99 1016 10 16 0.00 0.00
3:15 pm 15:15 Sunny 79 26 59 15 51 51 ESE 6 9 29.99 1016 10 16 0.00 0.00
3:35 pm 15:35 Sunny 79 26.3 57 14 47 47 SSE 10 17 29.98 1015 10 16 0.00 0.00
3:55 pm 15:55 Sunny 80 26.7 58 14.6 47 47 SE 7 11 29.97 1015 10 16 0.00 0.00
4:15 pm 16:15 Sunny 80 26.9 58 14.5 47 47 SE 10 17 29.96 1015 10 16 0.00 0.00
4:35 pm 16:35 Partly Cloudy 81 27.4 59 14.9 46 46 SE 9 15 29.95 1014 10 16 0.00 0.00
4:55 pm 16:55 Sunny 81 27.2 59 15.2 48 48 SSE 10 17 29.94 1014 10 16 0.00 0.00
5:15 pm 17:15 Sunny 81 27.4 58 14.6 46 46 SE 10 17 29.93 1013 10 16 0.00 0.00
5:35 pm 17:35 Partly Cloudy 81 27.2 57 13.9 44 44 SE 10 17 29.93 1013 10 16 0.00 0.00
5:55 pm 17:55 Sunny 82 27.8 58 14.6 44 44 SE 8 13 29.92 1013 10 16 0.00 0.00
6:15 pm 18:15 Sunny 82 27.5 58 14.4 45 45 SE 8 13 29.92 1013 10 16 0.00 0.00
6:35 pm 18:35 Sunny 82 27.5 58 14.4 45 45 SSE 10 17 29.91 1013 10 16 0.00 0.00
6:55 pm 18:55 Partly Cloudy 81 27.2 58 14.7 46 46 SSE 10 17 29.91 1013 10 16 0.00 0.00
7:15 pm 19:15 Sunny 80 26.9 59 14.8 48 48 SE 9 15 29.91 1013 10 16 0.00 0.00
7:35 pm 19:35 Mostly Cloudy 80 26.7 59 14.8 48 48 SSE 7 11 29.91 1013 10 16 0.00 0.00
7:55 pm 19:55 Sunny 80 26.4 59 15 50 50 SSE 10 17 29.90 1013 10 16 0.00 0.00
8:15 pm 20:15 Sunny 79 26 59 14.9 50 50 SSE 8 13 29.91 1013 10 16 0.00 0.00
8:35 pm 20:35 Sunny 77 25.2 59 14.9 53 53 SSE 7 11 29.90 1013 10 16 0.00 0.00
8:55 pm 20:55 Clear 77 25 58 14.7 53 53 SSE 8 13 29.90 1013 10 16 0.00 0.00
9:15 pm 21:15 Clear 76 24.5 58 14.6 54 54 SSE 7 11 29.90 1013 10 16 0.00 0.00
9:35 pm 21:35 Clear 75 24.1 58 14.6 55 55 SSE 6 9 29.91 1013 7 11 0.00 0.00
9:55 pm 21:55 Clear 75 23.9 58 14.7 56 56 SSE 8 13 29.91 1013 10 16 0.00 0.00
10:15 pm 22:15 Clear 75 24 58 14.7 56 56 SSE 7 11 29.91 1013 10 16 0.00 0.00
10:35 pm 22:35 Clear 75 23.8 58 14.7 57 57 SSE 7 11 29.92 1013 10 16 0.00 0.00
10:55 pm 22:55 Clear 74 23.2 59 14.8 59 59 SSE 6 9 29.92 1013 10 16 0.00 0.00
11:15 pm 23:15 Partly Cloudy 73 22.8 58 14.7 60 60 S 5 7 29.92 1013 7 11 0.00 0.00
11:35 pm 23:35 Partly Cloudy 72 22.3 59 14.8 63 63 S 3 6 29.91 1013 10 16 0.00 0.00
11:55 pm 23:55 Clear 72 22.4 58 14.7 62 62 SSE 6 9 29.91 1013 10 16 0.00 0.00

Powered by AerisWeather